CW8306 Weather Reports


Display with metric or nautical units.
time (UTC)temp
F
wind
direction
speed
MPH
gust
MPH
rain 1hr
in
rain 24hr
in
rain mn
in
humidity
%
barometer
mb
20260509074856 36 272 1.0 1.0 0.00 0.00 0.00 67 1008.6
20260509074354 36 240 1.0 1.0 0.00 0.00 0.00 67 1008.6
20260509073849 36 246 1.0 2.0 0.00 0.00 0.00 66 1008.7
20260509073346 37 229 0.0 5.0 0.00 0.00 0.00 66 1008.8
20260509072843 37 221 0.0 1.0 0.00 0.00 0.00 66 1008.5
20260509072339 37 201 1.0 1.0 0.00 0.00 0.00 65 1008.4
20260509071836 37 222 0.0 1.0 0.00 0.00 0.00 65 1008.4
20260509071333 37 231 0.0 1.0 0.00 0.00 0.00 65 1008.6
20260509070830 37 203 0.0 1.0 0.00 0.00 0.00 65 1008.5
20260509070327 37 232 1.0 2.0 0.00 0.00 0.00 65 1008.4
20260509065823 37 203 0.0 1.0 0.00 0.00 0.00 65 1008.4
20260509065319 37 228 1.0 1.0 0.00 0.00 0.00 65 1008.6
20260509064815 37 267 0.0 1.0 0.00 0.00 0.00 64 1008.4
20260509064313 37 215 0.0 1.0 0.00 0.00 0.00 64 1008.4
20260509063811 37 218 0.0 2.0 0.00 0.00 0.00 64 1008.5
20260509063307 37 211 0.0 1.0 0.00 0.00 0.00 63 1008.1
20260509062804 38 229 1.0 1.0 0.00 0.00 0.00 62 1008.2
20260509062301 38 243 0.0 1.0 0.00 0.00 0.00 61 1008.2
20260509061758 38 48 1.0 2.0 0.00 0.00 0.00 61 1008.3
20260509061256 38 212 0.0 1.0 0.00 0.00 0.00 60 1007.9
20260509060753 39 213 0.0 1.0 0.00 0.00 0.00 60 1008.1
20260509060250 39 213 0.0 2.0 0.00 0.00 0.00 59 1008.1
20260509055745 39 211 0.0 2.0 0.00 0.00 0.00 58 1007.8
20260509055241 39 105 2.0 3.0 0.00 0.00 0.00 58 1008.0
20260509054738 39 184 1.0 2.0 0.00 0.00 0.00 58 1008.0
20260509054235 39 208 1.0 1.0 0.00 0.00 0.00 58 1007.9
20260509053733 39 223 1.0 1.0 0.00 0.00 0.00 58 1007.7
20260509053230 40 68 1.0 2.0 0.00 0.00 0.00 57 1007.8
20260509052728 40 93 1.0 6.0 0.00 0.00 0.00 57 1007.8
20260509052225 40 132 1.0 2.0 0.00 0.00 0.00 57 1007.8
20260509051723 40 204 1.0 3.0 0.00 0.00 0.00 57 1007.7
20260509051221 40 33 1.0 3.0 0.00 0.00 0.00 56 1007.6
20260509050717 41 51 2.0 3.0 0.00 0.00 0.00 55 1007.4
20260509050213 41 24 3.0 6.0 0.00 0.00 0.00 54 1007.5
20260509045711 41 72 1.0 6.0 0.00 0.00 0.00 54 1007.5
20260509045208 41 54 1.0 3.0 0.00 0.00 0.00 54 1007.4
20260509044705 41 3 1.0 5.0 0.00 0.00 0.00 54 1007.5
20260509044203 41 215 2.0 3.0 0.00 0.00 0.00 54 1007.3
20260509043659 41 23 1.0 5.0 0.00 0.00 0.00 54 1007.2
20260509043154 42 91 2.0 8.0 0.00 0.00 0.00 54 1007.3
20260509042651 42 128 3.0 7.0 0.00 0.00 0.00 55 1007.2
20260509042147 42 1 2.0 6.0 0.00 0.00 0.00 55 1007.3
20260509041644 42 93 2.0 5.0 0.00 0.00 0.00 55 1007.0
20260509041141 42 52 5.0 10.0 0.00 0.00 0.00 54 1006.9
20260509040640 42 358 5.0 8.0 0.00 0.00 0.00 54 1006.7
20260509040136 42 19 3.0 6.0 0.00 0.00 0.00 54 1007.0
20260509035633 42 30 4.0 11.0 0.00 0.00 0.00 53 1006.8
20260509035130 43 13 3.0 11.0 0.00 0.00 0.00 53 1006.9
20260509034628 43 161 2.0 6.0 0.00 0.00 0.00 53 1006.9
20260509034125 43 27 5.0 9.0 0.00 0.00 0.00 53 1006.7
20260509033621 43 52 2.0 6.0 0.00 0.00 0.00 52 1006.8
20260509033118 44 13 2.0 5.0 0.00 0.00 0.00 51 1006.5
20260509032616 44 4 1.0 5.0 0.00 0.00 0.00 51 1006.9
20260509032112 44 100 2.0 5.0 0.00 0.00 0.00 50 1006.6
20260509031610 45 357 2.0 3.0 0.00 0.00 0.00 50 1006.4
20260509031108 45 21 3.0 8.0 0.00 0.00 0.00 49 1006.2
20260509030606 45 65 3.0 9.0 0.00 0.00 0.00 48 1006.2
20260509025558 46 41 1.0 5.0 0.00 0.00 0.00 45 1006.3
20260509025054 46 33 1.0 7.0 0.00 0.00 0.00 45 1006.1
20260509024550 47 68 4.0 6.0 0.00 0.00 0.00 44 1005.9
20260509024046 47 71 2.0 7.0 0.00 0.00 0.00 42 1005.7
20260509023544 48 208 1.0 6.0 0.00 0.00 0.00 42 1005.6
20260509023041 48 14 4.0 7.0 0.00 0.00 0.00 41 1005.6
20260509022537 48 348 2.0 3.0 0.00 0.00 0.00 41 1005.5
20260509022035 48 168 0.0 2.0 0.00 0.00 0.00 41 1005.7
20260509021532 49 273 1.0 1.0 0.00 0.00 0.00 40 1005.4
20260509021029 49 150 2.0 8.0 0.00 0.00 0.00 38 1005.3
20260509020527 49 68 4.0 8.0 0.00 0.00 0.00 39 1005.6
20260509020023 49 22 3.0 5.0 0.00 0.00 0.00 38 1005.5
20260509015523 50 241 1.0 5.0 0.00 0.00 0.00 36 1005.2
20260509015020 50 98 1.0 2.0 0.00 0.00 0.00 36 1005.3
20260509014516 50 223 0.0 3.0 0.00 0.00 0.00 36 1004.8
20260509014012 51 15 3.0 5.0 0.00 0.00 0.00 35 1005.1
20260509013510 51 214 2.0 7.0 0.00 0.00 0.00 36 1004.8
20260509013005 51 358 3.0 5.0 0.00 0.00 0.00 37 1004.7
20260509012502 51 242 3.0 11.0 0.00 0.00 0.00 37 1004.7
20260509011959 51 226 4.0 9.0 0.00 0.00 0.00 38 1004.6
20260509011456 52 227 1.0 3.0 0.00 0.00 0.00 36 1004.6
20260509010954 52 195 1.0 6.0 0.00 0.00 0.00 35 1004.5
20260509010451 53 66 2.0 8.0 0.00 0.00 0.00 34 1004.7
20260509005948 53 344 5.0 8.0 0.00 0.00 0.00 33 1004.4
20260509005446 53 2 3.0 5.0 0.00 0.00 0.00 32 1004.2
20260509004946 54 108 3.0 6.0 0.00 0.00 0.00 31 1004.0
20260509004443 54 354 4.0 7.0 0.00 0.00 0.00 31 1003.9
20260509003941 54 332 6.0 7.0 0.00 0.00 0.00 30 1003.8
20260509003438 55 171 1.0 5.0 0.00 0.00 0.00 30 1003.7
20260509002935 55 327 6.0 10.0 0.00 0.00 0.00 29 1004.0
20260509002433 55 358 4.0 6.0 0.00 0.00 0.00 30 1003.8
20260509001930 55 264 3.0 7.0 0.00 0.00 0.00 30 1003.7
20260509001426 55 42 3.0 6.0 0.00 0.00 0.00 30 1003.8
20260509000923 55 302 4.0 6.0 0.00 0.00 0.00 30 1003.7
20260509000421 55 354 8.0 13.0 0.00 0.00 0.00 29 1003.7
20260508235917 55 192 3.0 5.0 0.00 0.00 0.00 28 1003.8
20260508235415 55 225 1.0 6.0 0.00 0.00 0.00 27 1004.1
20260508234911 55 90 5.0 9.0 0.00 0.00 0.00 26 1003.9
20260508234409 56 334 5.0 13.0 0.00 0.00 0.00 26 1004.1
20260508233906 56 320 4.0 9.0 0.00 0.00 0.00 25 1004.1
20260508233406 57 169 3.0 6.0 0.00 0.00 0.00 25 1003.9
20260508232902 58 346 1.0 7.0 0.00 0.00 0.00 25 1003.9
20260508232358 58 216 3.0 6.0 0.00 0.00 0.00 25 1004.0
20260508231856 57 59 3.0 6.0 0.00 0.00 0.00 25 1004.3
20260508231353 57 271 2.0 8.0 0.00 0.00 0.00 24 1004.3
20260508230850 56 5 5.0 6.0 0.00 0.00 0.00 25 1004.4
20260508230346 57 14 5.0 10.0 0.00 0.00 0.00 26 1004.0
20260508225844 58 317 4.0 11.0 0.00 0.00 0.00 26 1004.2
20260508225340 59 76 3.0 9.0 0.00 0.00 0.00 25 1004.3
20260508224838 58 217 4.0 7.0 0.00 0.00 0.00 26 1004.5
20260508224335 58 345 5.0 16.0 0.00 0.00 0.00 26 1004.8
20260508223833 58 340 3.0 11.0 0.00 0.00 0.00 26 1004.5
20260508223330 58 337 5.0 10.0 0.00 0.00 0.00 27 1004.6
20260508222827 58 281 4.0 11.0 0.00 0.00 0.00 29 1004.5
20260508222324 59 0 5.0 11.0 0.00 0.00 0.00 29 1004.6
20260508221821 59 311 5.0 7.0 0.00 0.00 0.00 30 1004.6
20260508221316 58 19 8.0 14.0 0.00 0.00 0.00 29 1004.5
20260508220813 59 260 3.0 11.0 0.00 0.00 0.00 29 1004.4
20260508220310 60 220 1.0 8.0 0.00 0.00 0.00 29 1004.3
20260508215806 59 353 2.0 7.0 0.00 0.00 0.00 29 1004.4
20260508215306 60 230 5.0 9.0 0.00 0.00 0.00 28 1004.8
20260508214800 59 164 7.0 10.0 0.00 0.00 0.00 28 1004.7
20260508214257 59 343 3.0 11.0 0.00 0.00 0.00 29 1004.8
20260508213753 59 297 4.0 9.0 0.00 0.00 0.00 29 1004.9
20260508213250 58 325 2.0 7.0 0.00 0.00 0.00 29 1005.0
20260508212747 59 338 8.0 11.0 0.00 0.00 0.00 28 1004.6
20260508212243 59 256 3.0 9.0 0.00 0.00 0.00 29 1004.7
20260508211739 58 181 2.0 11.0 0.00 0.00 0.00 29 1004.8
20260508211235 58 279 4.0 9.0 0.00 0.00 0.00 29 1005.0
20260508210732 58 6 6.0 10.0 0.00 0.00 0.00 28 1004.9
20260508210229 59 338 4.0 10.0 0.00 0.00 0.00 28 1005.0
20260508205726 58 306 3.0 8.0 0.00 0.00 0.00 29 1005.0
20260508205222 58 158 4.0 7.0 0.00 0.00 0.00 28 1004.8
20260508204719 58 262 5.0 9.0 0.00 0.00 0.00 27 1005.1
20260508204215 58 137 5.0 10.0 0.00 0.00 0.00 27 1005.1
20260508203711 58 342 6.0 11.0 0.00 0.00 0.00 28 1005.1
20260508203208 58 248 2.0 11.0 0.00 0.00 0.00 27 1005.2
20260508202704 58 341 5.0 13.0 0.00 0.00 0.00 26 1005.1
20260508202201 58 344 3.0 7.0 0.00 0.00 0.00 26 1005.2
20260508201658 58 305 5.0 15.0 0.00 0.00 0.00 25 1005.4
20260508201154 58 203 7.0 10.0 0.00 0.00 0.00 26 1005.3
20260508200651 58 176 3.0 13.0 0.00 0.00 0.00 27 1005.5
20260508200147 59 340 4.0 9.0 0.00 0.00 0.00 26 1005.1
20260508195644 58 99 4.0 8.0 0.00 0.00 0.00 28 1005.3
20260508195141 58 308 7.0 11.0 0.00 0.00 0.00 27 1005.4
20260508194637 59 273 4.0 7.0 0.00 0.00 0.00 28 1005.4
20260508194134 58 298 6.0 17.0 0.00 0.00 0.00 28 1005.1
20260508193631 59 295 3.0 6.0 0.00 0.00 0.00 28 1005.4
20260508193128 59 319 3.0 9.0 0.00 0.00 0.00 28 1005.3
20260508192624 59 303 2.0 8.0 0.00 0.00 0.00 30 1005.2
20260508192122 59 249 4.0 6.0 0.00 0.00 0.00 29 1005.2
20260508191618 58 258 2.0 8.0 0.00 0.00 0.00 30 1005.4
20260508191115 59 327 6.0 9.0 0.00 0.00 0.00 29 1005.3
20260508190613 59 178 5.0 10.0 0.00 0.00 0.00 29 1005.1
20260508190109 59 281 4.0 10.0 0.00 0.00 0.00 30 1005.2
20260508185606 58 330 4.0 13.0 0.00 0.00 0.00 30 1005.3
20260508185103 59 252 2.0 7.0 0.00 0.00 0.00 31 1005.4
20260508184601 58 239 5.0 11.0 0.00 0.00 0.00 32 1005.3
20260508184057 59 254 5.0 9.0 0.00 0.00 0.00 31 1005.5
20260508183554 59 310 7.0 9.0 0.00 0.00 0.00 29 1005.4
20260508183050 59 348 3.0 6.0 0.00 0.00 0.00 30 1005.4
20260508182546 58 346 1.0 6.0 0.00 0.00 0.00 31 1005.5
20260508182043 58 210 2.0 8.0 0.00 0.00 0.00 31 1005.5
20260508181538 59 208 2.0 6.0 0.00 0.00 0.00 30 1005.4
20260508181036 58 227 2.0 7.0 0.00 0.00 0.00 31 1005.5
20260508180532 58 299 5.0 9.0 0.00 0.00 0.00 31 1005.5
20260508180029 57 344 6.0 13.0 0.00 0.00 0.00 31 1005.8
20260508175526 57 221 5.0 8.0 0.00 0.00 0.00 31 1005.6
20260508175023 58 13 3.0 11.0 0.00 0.00 0.00 31 1005.7
20260508174520 57 283 6.0 8.0 0.00 0.00 0.00 31 1005.7
20260508174017 57 308 3.0 8.0 0.00 0.00 0.00 33 1005.7
20260508173514 57 249 3.0 10.0 0.00 0.00 0.00 32 1005.8
20260508173010 57 92 2.0 10.0 0.00 0.00 0.00 32 1005.8
20260508172508 57 305 7.0 11.0 0.00 0.00 0.00 32 1005.8
20260508172004 56 282 3.0 7.0 0.00 0.00 0.00 32 1005.9
20260508171500 56 1 4.0 7.0 0.00 0.00 0.00 33 1005.9
20260508170956 57 342 5.0 8.0 0.00 0.00 0.00 31 1005.7
20260508170454 57 248 3.0 8.0 0.00 0.00 0.00 32 1006.0
20260508165951 57 340 2.0 9.0 0.00 0.00 0.00 32 1005.6
20260508165449 57 5 2.0 7.0 0.00 0.00 0.00 32 1005.6
20260508164944 57 19 4.0 5.0 0.00 0.00 0.00 32 1005.7
20260508164442 56 241 2.0 8.0 0.00 0.00 0.00 34 1005.8
20260508163939 57 330 3.0 9.0 0.00 0.00 0.00 34 1005.8
20260508163437 56 257 3.0 8.0 0.00 0.00 0.00 34 1005.8
20260508162932 56 341 3.0 3.0 0.00 0.00 0.00 36 1005.8
20260508162430 57 338 6.0 10.0 0.00 0.00 0.00 35 1006.0
20260508161926 56 62 1.0 5.0 0.00 0.00 0.00 36 1005.8
20260508161423 57 117 4.0 9.0 0.00 0.00 0.00 36 1005.9
20260508160921 55 206 3.0 5.0 0.00 0.00 0.00 37 1005.9
20260508160420 54 332 4.0 6.0 0.00 0.00 0.00 39 1005.7
20260508155915 54 74 4.0 7.0 0.00 0.00 0.00 39 1006.1
20260508155413 54 50 6.0 8.0 0.00 0.00 0.00 38 1005.9
20260508154909 54 201 3.0 8.0 0.00 0.00 0.00 38 1006.2
20260508154407 55 56 4.0 6.0 0.00 0.00 0.00 37 1006.1
20260508153904 54 320 3.0 5.0 0.00 0.00 0.00 41 1006.0
20260508153401 53 13 2.0 6.0 0.00 0.00 0.00 42 1006.1
20260508152856 53 114 3.0 7.0 0.00 0.00 0.00 43 1006.1
20260508152353 53 24 4.0 6.0 0.00 0.00 0.00 44 1006.0
20260508151850 53 82 1.0 5.0 0.00 0.00 0.00 48 1006.1
20260508151347 52 60 2.0 8.0 0.00 0.00 0.00 51 1006.1
20260508150843 52 135 1.0 7.0 0.00 0.00 0.00 53 1005.9
20260508150340 52 199 1.0 5.0 0.00 0.00 0.00 55 1006.0
20260508145836 52 337 5.0 8.0 0.00 0.00 0.00 55 1006.0
20260508145332 52 341 2.0 8.0 0.00 0.00 0.00 55 1006.0
20260508144829 52 333 4.0 8.0 0.00 0.00 0.00 54 1005.8
20260508144327 52 191 0.0 7.0 0.00 0.00 0.00 53 1006.0
20260508143824 52 4 4.0 7.0 0.00 0.00 0.00 52 1005.8
20260508143321 51 59 3.0 6.0 0.00 0.00 0.00 50 1005.5
20260508142818 51 206 1.0 3.0 0.00 0.00 0.00 48 1005.7
20260508142315 51 45 3.0 5.0 0.00 0.00 0.00 47 1005.7
20260508141811 51 51 3.0 6.0 0.00 0.00 0.00 44 1005.6
20260508141308 50 64 4.0 5.0 0.00 0.00 0.00 44 1005.6
20260508140806 50 170 2.0 6.0 0.00 0.00 0.00 45 1005.6
20260508140303 50 101 3.0 7.0 0.00 0.00 0.00 46 1005.5
20260508135758 49 30 3.0 6.0 0.00 0.00 0.00 45 1005.5
20260508135255 48 44 3.0 6.0 0.00 0.00 0.00 47 1005.6
20260508134750 47 63 3.0 5.0 0.00 0.00 0.00 50 1005.5
20260508134248 47 339 1.0 5.0 0.00 0.00 0.00 52 1005.5
20260508133744 46 176 4.0 7.0 0.00 0.00 0.00 53 1005.3
20260508133242 46 173 3.0 8.0 0.00 0.00 0.00 53 1005.4
20260508132740 46 186 2.0 3.0 0.00 0.00 0.00 53 1005.5
20260508132237 45 332 2.0 3.0 0.00 0.00 0.00 53 1005.2
20260508131732 44 190 0.0 3.0 0.00 0.00 0.00 54 1005.5
20260508131229 44 195 1.0 3.0 0.00 0.00 0.00 54 1005.3
20260508130726 43 203 1.0 2.0 0.00 0.00 0.00 53 1005.4
20260508130223 42 69 2.0 3.0 0.00 0.00 0.00 54 1005.2
20260508125718 42 179 0.0 3.0 0.00 0.00 0.00 55 1005.1
20260508125215 42 147 2.0 3.0 0.00 0.00 0.00 54 1005.2
20260508124713 42 129 1.0 1.0 0.00 0.00 0.00 55 1005.1
20260508124210 42 110 3.0 3.0 0.00 0.00 0.00 54 1004.9
20260508123708 41 119 2.0 3.0 0.00 0.00 0.00 54 1004.9
20260508123206 42 87 3.0 6.0 0.00 0.00 0.00 53 1005.0
20260508122702 42 40 2.0 5.0 0.00 0.00 0.00 53 1005.1
20260508122159 42 126 3.0 3.0 0.00 0.00 0.00 53 1004.8
20260508121657 42 190 1.0 1.0 0.00 0.00 0.00 55 1004.9
20260508121155 42 133 2.0 2.0 0.00 0.00 0.00 54 1004.8
20260508120652 42 173 1.0 2.0 0.00 0.00 0.00 53 1004.8
20260508120150 42 214 0.0 2.0 0.00 0.00 0.00 54 1004.8
20260508115648 42 179 2.0 2.0 0.00 0.00 0.00 54 1004.9
20260508115144 42 193 1.0 2.0 0.00 0.00 0.00 55 1004.6
20260508114641 42 201 0.0 2.0 0.00 0.00 0.00 55 1004.8
20260508114137 42 211 1.0 2.0 0.00 0.00 0.00 54 1005.0
20260508113635 42 149 2.0 2.0 0.00 0.00 0.00 55 1005.0
20260508113133 42 115 1.0 2.0 0.00 0.00 0.00 54 1005.0
20260508112628 42 155 0.0 3.0 0.00 0.00 0.00 54 1005.0
20260508112126 42 194 0.0 2.0 0.00 0.00 0.00 55 1005.0
20260508111622 42 134 1.0 1.0 0.00 0.00 0.00 54 1005.2
20260508111120 42 171 1.0 2.0 0.00 0.00 0.00 53 1005.1
20260508110618 42 159 0.0 1.0 0.00 0.00 0.00 53 1005.0
20260508110113 42 194 0.0 0.0 0.00 0.00 0.00 54 1004.9
20260508105608 42 182 1.0 2.0 0.00 0.00 0.00 53 1004.9
20260508105106 42 196 0.0 2.0 0.00 0.00 0.00 53 1005.1
20260508104603 42 316 0.0 1.0 0.00 0.00 0.00 53 1005.2
20260508104059 42 116 2.0 3.0 0.00 0.00 0.00 52 1005.4
20260508103557 42 202 0.0 2.0 0.00 0.00 0.00 53 1005.4
20260508103054 42 117 1.0 2.0 0.00 0.00 0.00 53 1005.7
20260508102551 42 102 1.0 2.0 0.00 0.00 0.00 54 1005.6
20260508102049 42 189 0.0 2.0 0.00 0.00 0.00 55 1005.9
20260508101546 42 197 0.0 1.0 0.00 0.00 0.00 53 1005.7
20260508101043 42 197 0.0 2.0 0.00 0.00 0.00 53 1005.6
20260508100541 42 199 0.0 3.0 0.00 0.00 0.00 54 1005.6
20260508100038 42 179 0.0 2.0 0.00 0.00 0.00 54 1005.7
20260508095535 42 198 0.0 2.0 0.00 0.00 0.00 53 1005.8
20260508095032 42 198 1.0 3.0 0.00 0.00 0.00 52 1005.8
20260508094529 42 183 1.0 1.0 0.00 0.00 0.00 52 1005.8
20260508094026 42 195 0.0 1.0 0.00 0.00 0.00 53 1005.9
20260508093523 42 206 0.0 1.0 0.00 0.00 0.00 53 1006.2
20260508093021 42 201 0.0 0.0 0.00 0.00 0.00 55 1006.1
20260508092518 41 201 0.0 2.0 0.00 0.00 0.00 55 1006.2
20260508092017 41 204 0.0 0.0 0.00 0.00 0.00 56 1006.2
20260508091513 41 204 0.0 1.0 0.00 0.00 0.00 56 1006.5
20260508091010 41 198 1.0 1.0 0.00 0.00 0.00 56 1006.4
20260508090508 41 213 0.0 0.0 0.00 0.00 0.00 56 1006.5
20260508090005 41 213 0.0 0.0 0.00 0.00 0.00 57 1006.5
20260508085501 42 213 0.0 0.0 0.00 0.00 0.00 56 1006.4
20260508084958 42 217 0.0 1.0 0.00 0.00 0.00 56 1006.3
20260508084455 41 221 0.0 0.0 0.00 0.00 0.00 57 1006.6
20260508083953 41 211 0.0 1.0 0.00 0.00 0.00 56 1006.6
20260508083449 41 211 0.0 1.0 0.00 0.00 0.00 57 1006.8
20260508082944 41 230 0.0 0.0 0.00 0.00 0.00 57 1006.7
20260508082442 41 230 0.0 1.0 0.00 0.00 0.00 58 1006.7
20260508081939 41 229 0.0 0.0 0.00 0.00 0.00 56 1006.7
20260508081436 41 229 0.0 0.0 0.00 0.00 0.00 57 1006.8
20260508080932 42 229 0.0 0.0 0.00 0.00 0.00 57 1006.6
20260508080431 42 229 0.0 0.0 0.00 0.00 0.00 56 1006.8
20260508075927 42 257 1.0 2.0 0.00 0.00 0.00 55 1006.7
20260508075424 41 167 3.0 3.0 0.00 0.00 0.00 57 1006.6